Location: Newark
(33.6439°N, 114.9881°W)
Time: 12:05:38
(UTC+00:00)

Tiros 1 - Pass Details

Date: 23 July 2019
Orbit: 630 x 664 km, 48.4° (Epoch: 18 August)

Event Time Altitude Azimuth Distance (km) Brightness Sun altitude
Rises 18:09:41 0° 230° (SW) 2,963 10.4 64.6°
Reaches altitude 10° 18:12:00 10° 230° (SW) 2,059 9.8 65.0°
Maximum altitude 18:16:46 89° 145° (SE) 663 8.8 65.9°
Drops below altitude 10° 18:21:35 10° 52° (NE) 2,080 10.0 66.7°
Sets 18:23:57 0° 52° (NE) 2,996 10.7 67.2°
